This demonstration page uses our WeatherBlox Daily Observations layout. Learn more.

Left ArrowRight Arrow

44.89941, -97.11507

Hourly Observations for March 17, 2017

Temp ( °F °C ) Dew Point ( °F °C ) Humidity (%) Winds ( mph kmh ) Pressure ( in mb ) Visibility ( mi km ) Precip ( " mm )
12:53 am 00:53 Clear with Mist and Fog 32 0 30 -1.1 92 92 WNW 9 15 29.90 1012 6 10 0.00 0.00
1:24 am 01:24 Mostly Cloudy 33 0.6 30 -1.1 89 89 WNW 10 17 29.94 1014 7 11 0.00 0.00
1:50 am 01:50 Cloudy 34 1 30 -1 87 87 NW 9 15 29.94 1014 7 11 0.00 0.00
1:53 am 01:53 Cloudy 34 1.1 31 -0.6 89 89 NW 9 15 29.90 1012 7 11 0.00 0.00
2:35 am 02:35 Cloudy with Mist and Fog 34 1.1 33 0.6 97 97 WNW 8 13 29.97 1015 2 3 0.00 0.00
2:40 am 02:40 Cloudy with Mist and Fog 34 1.1 33 0.6 97 97 WNW 9 15 29.97 1015 1 1 0.00 0.00
2:53 am 02:53 Mostly Cloudy with Fog 34 1.1 34 1.1 100 100 NW 8 13 29.93 1013 0 0 0.00 0.00
3:53 am 03:53 Mostly Cloudy with Fog 35 1.7 35 1.7 100 100 W 14 22 29.94 1014 0 0 0.00 0.00
4:09 am 04:09 Mostly Cloudy with Fog 35 1.7 35 1.7 100 100 WNW 12 19 30.00 1016 1 1 0.00 0.00
4:16 am 04:16 Mostly Cloudy with Fog 35 1.7 35 1.7 100 100 WNW 9 15 30.00 1016 0 0 0.00 0.00
4:33 am 04:33 Mostly Cloudy with Fog 35 1.7 35 1.7 100 100 W 9 15 30.00 1016 1 1 0.00 0.00
4:42 am 04:42 Mostly Cloudy with Fog 34 1.1 34 1.1 100 100 WNW 10 17 30.00 1016 0 0 0.00 0.00
4:50 am 04:50 Mostly Cloudy with Fog 34 1 34 1 100 100 WNW 6 9 30.00 1016 1 1 0.00 0.00
4:53 am 04:53 Mostly Cloudy with Fog 34 1.1 34 1.1 100 100 W 5 7 29.96 1015 1 1 0.00 0.00
5:53 am 05:53 Mostly Cloudy with Fog 33 0.6 32 0 96 96 VRB 3 6 29.98 1015 1 1 0.00 0.00
5:58 am 05:58 Partly Cloudy with Mist and Fog 33 0.6 33 0.6 100 100 SW 5 7 30.03 1017 1 2 0.00 0.00
6:01 am 06:01 Partly Cloudy with Mist and Fog 34 1.1 33 0.6 97 97 SW 3 6 30.03 1017 3 4 0.00 0.00
6:08 am 06:08 Mostly Clear with Mist and Fog 33 0.6 33 0.6 100 100 WSW 6 9 30.03 1017 6 10 0.00 0.00
6:53 am 06:53 Clear 33 0.6 31 -0.6 92 92 W 9 15 30.00 1016 10 16 0.00 0.00
7:53 am 07:53 Sunny 35 1.7 32 0 89 89 W 16 26 30.02 1017 10 16 0.00 0.00
8:53 am 08:53 Sunny 37 2.8 31 -0.6 79 79 WNW 15 24 30.04 1017 10 16 0.00 0.00
9:53 am 09:53 Sunny 38 3.3 31 -0.6 76 76 NW 18 30 30.06 1018 10 16 0.00 0.00
10:14 am 10:14 Mostly Cloudy 37 2.8 31 -0.6 79 79 NW 20 31 30.09 1019 10 16 0.00 0.00
10:53 am 10:53 Cloudy 37 2.8 30 -1.1 76 76 WNW 17 28 30.08 1019 10 16 0.00 0.00
11:53 am 11:53 Cloudy 37 2.8 30 -1.1 76 76 WNW 18 30 30.09 1019 10 16 0.00 0.00
12:53 pm 12:53 Cloudy 36 2.2 29 -1.7 76 76 NW 24 39 30.11 1020 10 16 0.00 0.00
1:53 pm 13:53 Cloudy 36 2.2 28 -2.2 73 73 NW 26 43 30.13 1020 10 16 0.00 0.00
2:53 pm 14:53 Cloudy 35 1.7 28 -2.2 76 76 NW 25 41 30.15 1021 10 16 0.00 0.00
3:10 pm 15:10 Cloudy 35 1.7 28 -2.2 76 76 NW 25 41 30.15 1021 10 16 0.00 0.00
3:23 pm 15:23 Cloudy 35 1.7 28 -2.2 76 76 WNW 20 31 30.15 1021 10 16 0.00 0.00
3:53 pm 15:53 Cloudy 36 2.2 28 -2.2 73 73 WNW 22 35 30.15 1021 10 16 0.00 0.00
4:13 pm 16:13 Cloudy 37 2.8 29 -1.7 73 73 WNW 24 39 30.18 1022 10 16 0.00 0.00
4:40 pm 16:40 Cloudy 36 2.2 29 -1.7 76 76 WNW 17 28 30.18 1022 10 16 0.00 0.00
4:53 pm 16:53 Cloudy 37 2.8 29 -1.7 73 73 WNW 17 28 30.16 1022 10 16 0.00 0.00
5:26 pm 17:26 Cloudy 37 2.8 29 -1.7 73 73 NW 20 31 30.18 1022 10 16 0.00 0.00
5:53 pm 17:53 Mostly Cloudy 37 2.8 29 -1.7 73 73 NW 23 37 30.20 1023 10 16 0.00 0.00
6:53 pm 18:53 Partly Cloudy 36 2.2 28 -2.2 73 73 NW 21 33 30.22 1023 10 16 0.00 0.00
7:53 pm 19:53 Clear 34 1.1 26 -3.3 73 73 NW 18 30 30.25 1024 10 16 0.00 0.00
8:53 pm 20:53 Clear 32 0 25 -3.9 75 75 NW 17 28 30.27 1025 10 16 0.00 0.00
9:53 pm 21:53 Mostly Clear 31 -0.6 25 -3.9 79 79 NW 16 26 30.28 1025 10 16 0.00 0.00
10:53 pm 22:53 Mostly Clear 30 -1.1 24 -4.4 79 79 NW 15 24 30.30 1026 10 16 0.00 0.00
11:09 pm 23:09 Mostly Cloudy 30 -1.1 25 -3.9 82 82 NW 14 22 30.33 1027 10 16 0.00 0.00
11:41 pm 23:41 Partly Cloudy 29 -1.7 24 -4.4 82 82 NW 13 20 30.33 1027 10 16 0.00 0.00
11:53 pm 23:53 Clear 29 -1.7 24 -4.4 82 82 NW 14 22 30.31 1027 10 16 0.00 0.00

Powered by AerisWeather